User: anonymous   Login
Location: Unspecified
(0.0000°N, 0.0000°E)
Time: 01:48:06
(UTC+00:00)
Language:

USA 224 - Orbit

View from above orbital plane
View from above orbital plane
View from above satellite
View from above satellite

Ground track
Ground track

The orbit data is extracted from the following two-line orbital elements,

1 37348U 11002A   15233.94216637 0.00018500  00000-0  18548-3 0    07
2 37348  97.8813 344.8103 0532853 220.5086 139.4912 14.77134132    07
Epoch (UTC): 21 August 2015 22:36:43
Eccentricity: 0.0532853
inclination: 97.8813°
perigee height: 264 km
apogee height: 1012 km
right ascension of ascending node: 344.8103°
argument of perigee: 220.5086°
revolutions per day: 14.77134132
mean anomaly at epoch: 139.4912°
orbit number at epoch: 0

The dashed part of the orbit path shows where the satellite is in the earth's shadow,  

DLR